This is the latest recevied weather packets stored in our database for station/object WA4IKQ. If no packets are shown the sender has not sent any weather packets the latest 10 day(s).
| Time | Temp. | Humidity | Pressure | Rain* | Wind** | Luminosity | Snow |
|---|---|---|---|---|---|---|---|
| 1778214990 | 25.56° C | 72% | 1014 hPa | 0 mm | 2.24 m/s, 226° | - | - |
| 1778212984 | 26.11° C | 71% | 1014.1 hPa | 0 mm | 3.58 m/s, 195° | - | - |
| 1778212374 | 26.11° C | 70% | 1014.1 hPa | 0 mm | 1.34 m/s, 248° | - | - |
| 1778212290 | 26.11° C | 70% | 1014.1 hPa | 0 mm | 1.34 m/s, 248° | - | - |
| 1778210573 | 26.67° C | 66% | 1013.8 hPa | 0 mm | 0.45 m/s, 232° | - | - |
| 1778210489 | 26.67° C | 66% | 1013.8 hPa | 0 mm | 0.45 m/s, 232° | - | - |
| 1778210034 | 26.67° C | 65% | 1013.7 hPa | 0 mm | 1.34 m/s, 215° | - | - |
| 1778209994 | 26.67° C | 65% | 1013.7 hPa | 0 mm | 1.34 m/s, 215° | - | - |
| 1778209886 | 26.67° C | 65% | 1013.7 hPa | 0 mm | 1.34 m/s, 215° | - | - |
| 1778209671 | 26.67° C | 65% | 1013.7 hPa | 0 mm | 3.13 m/s, 224° | - | - |
| 1778209589 | 26.67° C | 65% | 1013.7 hPa | 0 mm | 3.13 m/s, 224° | - | - |
| 1778209337 | 26.67° C | 65% | 1013.8 hPa | 0 mm | 1.79 m/s, 174° | - | - |
| 1778209074 | 27.22° C | 64% | 1013.7 hPa | 0 mm | 2.24 m/s, 262° | - | - |
| 1778208987 | 27.22° C | 64% | 1013.7 hPa | 0 mm | 2.24 m/s, 262° | - | - |
| 1778208784 | 27.22° C | 63% | 1013.8 hPa | 0 mm | 1.79 m/s, 215° | - | - |
| 1778208689 | 27.22° C | 63% | 1013.8 hPa | 0 mm | 1.79 m/s, 215° | - | - |
| 1778208465 | 27.22° C | 63% | 1013.6 hPa | 0 mm | 2.24 m/s, 150° | - | - |
| 1778208393 | 27.22° C | 63% | 1013.6 hPa | 0 mm | 2.24 m/s, 150° | - | - |
| 1778208181 | 27.22° C | 62% | 1013.6 hPa | 0 mm | 2.68 m/s, 249° | - | - |
| 1778208089 | 27.22° C | 62% | 1013.6 hPa | 0 mm | 2.68 m/s, 249° | - | - |
| 1778207292 | 27.78° C | 60% | 1013.4 hPa | 0 mm | 2.68 m/s, 267° | - | - |
| 1778207187 | 27.78° C | 60% | 1013.4 hPa | 0 mm | 2.68 m/s, 267° | - | - |
| 1778206662 | 27.78° C | 59% | 1013.4 hPa | 0 mm | 2.24 m/s, 242° | - | - |
| 1778206443 | 27.78° C | 59% | 1013.4 hPa | 0 mm | 1.34 m/s, 177° | - | - |
| 1778206081 | 27.78° C | 58% | 1013.3 hPa | 0 mm | 0.89 m/s, 214° | - | - |
* Rain latest hour (hover to see other rain measurements)
** Current wind speed in m/s (hover to see current wind gust speed)